Location: Bonningues
(50.7927°N, 2.0150°E)
Time: 06:34:46
(UTC+00:00)

Cosmos 1242 Rocket - Pass Details

Date: 08 August 2020
Orbit: 448 x 486 km, 81.2° (Epoch: 23 September)

Event Time Altitude Azimuth Distance (km) Brightness Sun altitude
Rises 23:40:54 0° 339° (NNW) 2,530 7.5 -23.3°
Reaches altitude 10° 23:43:08 10° 328° (NNW) 1,654 6.1 -23.4°
Enters shadow 23:45:47 29° 284° (WNW) 915 4.0 -23.4°
